Вернуться в каталог

SHIYAN 12 01

SY-12 01

АктивенНаукаGEO
NORAD 50321·PAYLOAD·🇨🇳 China

Запущен Dec 23, 2021 с Wenchang Space Launch Site

Loading…

TLE

СвежийSource: Space-Track

Эпоха: Sep 14, 2026, 17:25 UTC

1 50321U 21129A   26257.72587404  .00000125  00000-0  00000+0 0  9992
2 50321   3.8994  78.6452 0001608 173.6971  43.9705  1.00476673 17399

Отслеживайте SHIYAN 12 01 в реальном времени с AllMySat

Download on the App Store